Location: Cazarilh
(42.9578°N, 0.5819°E)
Time: 20:51:56
(UTC+00:00)

Cosmos 2142 Rocket - Pass Details

Date: 11 December 2019
Orbit: 952 x 1006 km, 83.0° (Epoch: 29 January)

Event Time Altitude Azimuth Distance (km) Brightness Sun altitude
Rises 05:32:07 0° 190° (S) 3,714 7.6 -18.7°
Reaches altitude 10° 05:34:39 10° 191° (S) 2,771 6.9 -18.2°
Maximum altitude 05:41:02 79° 278° (W) 1,029 4.5 -17.1°
Drops below altitude 10° 05:47:28 10° 5° (N) 2,784 6.8 -16.0°
Sets 05:50:00 0° 7° (N) 3,734 7.5 -15.5°
